www.pogodaiklimat.ru

Погода и климат >> Архив погоды >> Австралия >> Западная Австралия >> База ВВС Curtin


ПОГОДА на Базе ВВС Curtin

  • Прогноз погоды на Базе ВВС Curtin
  • Монитор погоды на Базе ВВС Curtin

АРХИВ ПОГОДЫ на Базе ВВС Curtin

Время (UTC), дата Ветер
(напр.,м/с)
 
Видим.   Явления Облачность Т
(С)
Тd
(С)
f
(%)
Тe
(С)
Тes
(С)
Комфортность P
(гПа)
Po
(гПа)
Тmin
(С)
Tmax
(С)
R
(мм)
R24
(мм)
S
(см)
10 12.07 ЮВ 3 н/о н/о +25.6 +1.7 21 +24 +24 комфорт 1015.6 1006.6
12 12.07 ЮВ 4 н/о н/о +24.0 +1.6 23 +23 +23 комфорт 1017.1 1008.0
13 12.07 ЮВ 4 н/о н/о +22.2 +1.8 26 +22 +22 комфорт 1017.3 1008.2 +32.0
15 12.07 ЮВ 5 н/о н/о +21.7 +1.9 27 +21 +21 комфорт 1017.6 1008.5
16 12.07 ЮВ 4 н/о н/о +20.5 +1.4 28 +21 +21 комфорт 1017.3 1008.2
18 12.07 ЮВ 7 н/о н/о +21.9 -1.4 21 +21 +21 комфорт 1016.9 1007.8
19 12.07 ЮВ 6 н/о н/о +20.8 -2.3 21 +20 +20 1016.7 1007.6
21 12.07 ЮВ 6 н/о н/о +19.0 -2.0 24 +19 +19 1017.3 1008.2
22 12.07 ЮВ 6 н/о н/о +18.5 -2.4 24 +18 +18 1018.0 1008.9
00 13.07 ЮВ 7 н/о н/о +22.4 -2.3 19 +21 +21 комфорт 1019.2 1010.1
01 13.07 В 7 н/о н/о +25.7 -3.8 14 +23 +23 комфорт 1019.4 1010.3 +18.3
03 13.07 В 6 н/о н/о +30.0 -4.9 10 +26 +26 жарко 1018.3 1009.2
04 13.07 ЮВ 7 н/о н/о +30.4 -3.3 11 +27 +27 жарко 1017.1 1008.0
06 13.07 Ю 6 н/о н/о +31.2 -4.0 10 +28 +28 жарко 1015.1 1006.1
07 13.07 ЮВ 5 н/о н/о +30.9 -5.6 9 +27 +27 жарко 1014.9 1005.9
09 13.07 ЮВ 5 н/о н/о +29.0 -4.4 11 +26 +26 жарко 1015.1 1006.1
10 13.07 ЮВ 4 н/о н/о +25.2 -3.2 15 +23 +23 комфорт 1015.7 1006.7
12 13.07 ЮВ 4 н/о н/о +22.2 -2.5 19 +21 +21 комфорт 1017.2 1008.1
13 13.07 ЮВ 5 н/о н/о +21.6 -2.3 20 +21 +21 комфорт 1017.3 1008.2 +32.1
15 13.07 ЮВ 6 н/о н/о +21.9 -5.0 16 +21 +21 комфорт 1017.2 1008.1
18 13.07 ЮВ 7 н/о н/о +20.3 -5.5 17 +20 +20 1017.1 1008.0
19 13.07 ЮВ 6 н/о н/о +19.0 -5.1 19 +18 +18 1017.2 1008.1
21 13.07 ЮВ 8 н/о н/о +18.3 -5.7 19 +17 +17 1017.5 1008.4
22 13.07 ЮВ 7 н/о н/о +17.4 -5.8 20 +16 +16 1018.3 1009.2
00 14.07 ЮВ 7 н/о н/о +20.6 -4.5 18 +20 +20 1019.5 1010.4
01 14.07 ЮВ 7 н/о н/о +23.2 -3.2 17 +22 +22 комфорт 1019.6 1010.5 +17.2
03 14.07 В 7 н/о н/о +27.0 -1.8 15 +25 +25 комфорт 1018.6 1009.5
04 14.07 В 7 н/о н/о +28.8 -2.3 13 +26 +26 жарко 1017.5 1008.4
06 14.07 ЮВ 6 н/о н/о +28.8 -3.4 12 +26 +26 жарко 1015.4 1006.4
07 14.07 ЮВ 7 н/о н/о +28.9 -3.3 12 +26 +26 жарко 1014.9 1005.9
09 14.07 ЮВ 6 н/о н/о +27.0 -1.8 15 +25 +25 комфорт 1015.4 1006.4
10 14.07 ЮВ 4 н/о н/о +24.5 -1.3 18 +23 +23 комфорт 1016.0 1007.0
12 14.07 ЮВ 4 н/о н/о +21.2 -0.7 23 +21 +21 комфорт 1017.3 1008.2
13 14.07 ЮВ 5 н/о н/о +20.3 -1.5 23 +20 +20 1017.7 1008.6 +30.3
15 14.07 ЮВ 6 н/о н/о +19.6 -3.3 21 +19 +19 1018.3 1009.2
16 14.07 ЮВ 6 н/о н/о +18.6 -3.5 22 +18 +18 1018.0 1008.9
18 14.07 ЮВ 7 н/о н/о +17.5 -3.8 23 +17 +17 1017.5 1008.4
19 14.07 ЮВ 6 н/о н/о +16.7 -3.4 25 +16 +16 1017.5 1008.4
21 14.07 ЮВ 5 н/о н/о +14.5 -3.8 28 +13 +13 1017.6 1008.5
22 14.07 ЮВ 5 н/о н/о +13.9 -3.4 30 +13 +13 1018.2 1009.1
00 15.07 ЮВ 6 н/о н/о +18.1 -3.3 23 +18 +18 1019.2 1010.1
01 15.07 ЮВ 6 н/о н/о +21.1 -2.7 20 +20 +20 1019.4 1010.3 +13.4
03 15.07 В 5 н/о н/о +23.8 -3.5 16 +22 +22 комфорт 1018.4 1009.3
04 15.07 ЮВ 5 н/о н/о +25.0 -4.3 14 +23 +23 комфорт 1017.2 1008.1
06 15.07 Ю 7 н/о н/о +26.7 -6.2 11 +24 +24 комфорт 1014.8 1005.8
07 15.07 ЮВ 6 н/о н/о +27.0 -7.2 10 +24 +24 комфорт 1014.5 1005.5
09 15.07 Ю 7 н/о н/о +24.5 -6.7 12 +22 +22 комфорт 1014.9 1005.9
10 15.07 ЮВ 4 н/о н/о +21.5 -6.2 15 +20 +20 1015.4 1006.4
12 15.07 ЮВ 3 н/о н/о +17.8 -6.8 18 +18 +18 1016.9 1007.8
13 15.07 ЮВ 4 н/о н/о +17.0 -6.8 19 +17 +17 1017.2 1008.1 +27.8
15 15.07 ЮВ 4 н/о н/о +16.6 -7.1 19 +16 +16 1017.3 1008.2
16 15.07 ЮВ 5 н/о н/о +16.2 -6.8 20 +15 +15 1017.2 1008.1
18 15.07 ЮВ 6 н/о н/о +15.6 -6.0 22 +15 +15 1016.7 1007.6
19 15.07 ЮВ 7 н/о н/о +16.5 -5.9 21 +15 +15 1016.4 1007.4
21 15.07 ЮВ 5 н/о н/о +14.3 -6.0 24 +13 +13 1016.8 1007.7
22 15.07 ЮВ 5 н/о н/о +13.5 -6.1 25 +12 +12 1017.4 1008.3
00 16.07 В 6 н/о н/о +19.0 -5.8 18 +18 +18 1018.5 1009.4
01 16.07 В 5 н/о н/о +22.0 -5.8 15 +21 +21 комфорт 1018.7 1009.6 +13.4
03 16.07 В 6 н/о н/о +25.2 -7.3 11 +23 +23 комфорт 1017.5 1008.4
04 16.07 ЮВ 5 н/о н/о +27.1 -7.1 10 +24 +24 комфорт 1016.2 1007.2
06 16.07 ЮВ 5 н/о н/о +28.4 -7.5 9 +25 +25 комфорт 1014.6 1005.6
07 16.07 ЮВ 6 н/о н/о +28.4 -7.5 9 +25 +25 комфорт 1014.2 1005.2
09 16.07 ЮВ 5 н/о н/о +26.3 -7.7 10 +23 +23 комфорт 1014.7 1005.7
10 16.07 ЮВ 4 н/о н/о +22.9 -6.0 14 +21 +21 комфорт 1015.3 1006.3
12 16.07 ЮВ 4 н/о н/о +19.6 -5.3 18 +19 +19 1016.2 1007.2
13 16.07 ЮВ 5 н/о н/о +20.1 -5.7 17 +20 +20 1016.6 1007.5 +29.4
15 16.07 ЮВ 5 н/о н/о +18.9 -5.2 19 +19 +19 1016.0 1007.0
16 16.07 ЮВ 6 н/о н/о +19.2 -5.0 19 +19 +19 1015.9 1006.9
18 16.07 ЮВ 7 н/о н/о +17.9 -4.7 21 +17 +17 1015.2 1006.2
19 16.07 ЮВ 6 н/о н/о +17.0 -4.3 23 +16 +16 1015.1 1006.1
21 16.07 ЮВ 7 н/о н/о +16.6 -4.0 24 +16 +16 1015.1 1006.1
22 16.07 ЮВ 6 н/о н/о +16.2 -4.4 24 +15 +15 1015.2 1006.2
00 17.07 ЮВ 6 н/о н/о +20.5 -3.2 20 +20 +20 1016.7 1007.6
01 17.07 В 7 н/о н/о +22.8 -3.5 17 +21 +21 комфорт 1017.0 1007.9 +16.0
03 17.07 В 6 н/о н/о +26.3 -5.3 12 +24 +24 комфорт 1015.8 1006.8
04 17.07 СВ 4 н/о н/о +27.8 -6.6 10 +25 +25 комфорт 1014.6 1005.6
06 17.07 ЮВ 3 н/о н/о +29.2 -8.4 8 +25 +25 комфорт 1012.9 1003.9
07 17.07 ЮВ 4 н/о н/о +30.1 -7.7 8 +26 +26 жарко 1012.5 1003.5
09 17.07 ЮВ 4 н/о н/о +28.5 -7.4 9 +25 +25 комфорт 1012.8 1003.8
10 17.07 ЮВ 3 н/о н/о +24.2 -7.0 12 +22 +22 комфорт 1013.0 1004.0
12 17.07 Ю 4 н/о н/о +21.3 -6.3 15 +20 +20 1014.1 1005.1
13 17.07 ЮВ 4 н/о н/о +20.9 -5.8 16 +21 +21 комфорт 1014.2 1005.2 +30.8
15 17.07 ЮВ 5 н/о н/о +20.4 -5.4 17 +20 +20 1013.9 1004.9
16 17.07 ЮВ 5 н/о н/о +19.3 -4.2 20 +19 +19 1013.8 1004.8
18 17.07 ЮВ 5 н/о н/о +19.1 -1.9 24 +19 +19 1013.6 1004.6
19 17.07 ЮВ 5 н/о н/о +18.4 -1.4 26 +18 +18 1013.6 1004.6
21 17.07 ЮВ 4 н/о н/о +17.2 -1.0 29 +17 +17 1014.0 1005.0
22 17.07 ЮВ 4 н/о н/о +16.0 -0.7 32 +15 +15 1014.5 1005.5
00 18.07 В 5 н/о н/о +22.5 +0.4 23 +22 +22 комфорт 1015.4 1006.4
01 18.07 В 5 н/о 1/0
[]
+25.0 -0.9 18 +23 +27 комфорт 1015.3 1006.3 +15.9
03 18.07 В 5 н/о н/о +29.4 -1.9 13 +26 +26 жарко 1014.5 1005.5
04 18.07 СВ 4 н/о н/о +30.3 -2.2 12 +27 +27 жарко 1013.6 1004.6
06 18.07 В 3 н/о н/о +31.1 -4.1 10 +27 +27 жарко 1011.7 1002.7
07 18.07 СВ 2 н/о н/о +32.4 -3.1 10 +29 +29 жарко 1011.3 1002.3
09 18.07 СЗ 3 н/о н/о +30.1 +0.6 15 +27 +27 жарко 1011.7 1002.7
10 18.07 СЗ 2 н/о н/о +23.5 -0.1 21 +22 +22 комфорт 1012.1 1003.1
12 18.07 З 2 н/о н/о +17.8 0.0 30 +19 +19 1013.6 1004.6
13 18.07 С 2 н/о н/о +16.7 +5.6 48 +17 +17 1013.7 1004.7 +33.1
15 18.07 штиль 0 н/о н/о +14.7 +8.6 67 +15 +15 1013.8 1004.8
16 18.07 штиль 0 н/о н/о +14.8 +8.1 64 +15 +15 1013.6 1004.6
18 18.07 штиль 0 н/о н/о +14.5 +11.7 83 +14 +14 1012.9 1003.9
19 18.07 ЮВ 2 н/о н/о +13.2 +8.3 72 +13 +13 1012.8 1003.8
21 18.07 В 2 н/о н/о +12.2 +2.6 52 +12 +12 1012.5 1003.5
22 18.07 СВ 2 н/о н/о +12.4 +1.1 46 +12 +12 1012.6 1003.6
00 19.07 СВ 4 н/о н/о +21.3 -0.6 23 +21 +21 комфорт 1013.8 1004.8
01 19.07 СВ 3 н/о н/о +25.2 0.0 19 +24 +24 комфорт 1014.1 1005.1 +11.5
03 19.07 С 4 н/о н/о +29.9 +2.2 17 +28 +28 жарко 1013.6 1004.6
04 19.07 СЗ 4 н/о н/о +31.0 +3.1 17 +29 +29 жарко 1012.7 1003.7
06 19.07 З 4 н/о н/о +31.3 +5.7 20 +29 +29 жарко 1011.4 1002.4
07 19.07 СЗ 4 н/о н/о +31.8 +6.1 20 +30 +30 жарко 1011.3 1002.3
09 19.07 СЗ 4 н/о н/о +29.5 +6.8 24 +28 +28 жарко 1011.9 1002.9
10 19.07 СЗ 2 н/о н/о +25.9 +6.5 29 +26 +26 жарко 1012.3 1003.3

 

Местоположение метеостанции База ВВС Curtin (Западная Австралия, Австралия): широта -17.58 долгота 123.82 высота над уровнем моря 78 м.

В архиве по умолчанию представлена погода на Базе ВВС Curtin за последнюю неделю. Архивные данные за месяц целиком и за предыдущие месяцы, начиная с января 2011 года, Вы можете получить, выбрав интересующий диапазон дат из раскрывающегося списка и нажав кнопку "Ввод!".


*Определитесь, кто Вы:
робот инопланетянин человек

Внимание! Время в таблицах - всемирное. Для получения местного времени необходимо прибавить поправку, которая равна 8 ч.

Смотрите также архив погоды в соседних городах и на ближайших метеорологических станциях:

Погода в Дерби (Северная территория, Австралия) (30 км)
Погода в Робак Запад (Западная Австралия, Австралия) (163 км)
Погода в Бруме (Западная Австралия, Австралия) (173 км)
Погода в Фицрой-Кроссинге (Западная Австралия, Австралия) (196 км)
Погода на Острове Адель (Западная Австралия, Австралия) (241 км)
Погода на Острове Брауз (Западная Австралия, Австралия) (387 км)
Погода в Мандоре (Западная Австралия, Австралия) (394 км)
Погода в Холс Крик (Западная Австралия, Австралия) (413 км)
Погода в Калумбуру (Западная Австралия, Австралия) (474 км)
Погода в Трускотте (Западная Австралия, Австралия) (476 км)

Пояснения к столбцам:

Ветер - указаны скорость ветра в м/с - средняя за 10 мин, порывы в срок и между сроками (в фигурных скобках) и направление, откуда дует ветер: С - северный, СВ - северо-восточный, В - восточный, ЮВ - юго-восточный, Ю - южный, ЮЗ - юго-западный, З - западный, СЗ - северо-западный.
Видимость - горизонтальная дальность видимости в метрах или километрах. При видимости от 1 до 10 км при отсутствии осадков обычно наблюдается дымка, при ухудшении видимости до 1 км и менее - туман. В сухую погоду видимость может ухудшаться дымом, пылью или мглою.
Явления - указаны атмосферные явления, наблюдавшиеся в срок или в последний час перед сроком; фигурными скобками обозначены явления, наблюдавшиеся между сроками (за 1-3 часа до срока); квадратными скобками обозначены град или гололедные отложения с указанием их диаметра в мм.
Облачность - указаны через наклонную черту общая и нижняя облачность в баллах и высота нижней границы облаков в метрах; квадратными скобками обозначены формы облаков: Ci - перистые, Cs - перисто-слоистые, Cc - перисто-кучевые, Ac - высококучевые, As - высокослоистые, Sc - слоисто-кучевые, Ns - слоисто-дождевые, Cu - кучевые, Cb - кучево-дождевые. Подробнее классификацию облаков см. в Атласе облаков (PDF).
T - Температура воздуха - температура, измеренная на высоте 2 м над землей.
Td - Температура точки росы - температура, при понижении до которой содержащийся в воздухе водяной пар достигнет насыщения.
f - Относительная влажность воздуха - влажноcть воздуха, измеренная на высоте 2 м над землей.
Te - Эффективная температура - температура, которую ощущает одетый по сезону человек в тени. Характеристика душности погоды. При расчете учитывается влияние влажности воздуха и скорости ветра на теплоощущения человека.
Tes - Эффективная температура на солнце - температура, которую ощущает человек, с поправкой на солнечный нагрев. Характеристика знойности погоды. Зависит от высоты солнца над горизонтом, облачности и скорости ветра. Ночью, в пасмурную погоду, а также при ветре 12 м/с и более поправка равна нулю.
P - Атмосферное давление - приведенное к уровню моря атмосферное давление.
Po - Атмосферное давление - измеренное на уровне метеостанции атмосферное давление.
Tmin - Минимальная температура - минимум температуры воздуха на высоте 2 м над землей.
Tmax - Максимальная температура - максимум температуры воздуха на высоте 2 м над землей.
R - Количество осадков - Количество выпавших осадков за период времени, мм. При наведении курсора мыши на число - период времени, за который выпало указанное количество осадков.
R24 - Количество осадков - Количество выпавших осадков за 24 часа, мм.
S - Снежный покров - Высота снежного покрова, см. При наведении курсора мыши на число - состояние снежного покрова и степень покрытия местности в баллах.